Time,TemperatureF,DewpointF,PressureIn,WindDirection,WindDirectionDegrees,WindSpeedMPH,WindSpeedGustMPH,Humidity,HourlyPrecipIn,Conditions,Clouds,dailyrainin,SolarRadiationWatts/m^2,SoftwareType,DateUTC
2013-09-24 00:00:00,45.4,40.2,30.02,NNW,338,0.0,0.0,82,0.00,,,0.00,0000,Weather View 32 v70,2013-09-24 04:00:00,
2013-09-24 00:05:00,45.3,40.1,30.02,NNW,338,0.0,0.0,82,0.00,,,0.00,0000,Weather View 32 v70,2013-09-24 04:05:00,
2013-09-24 00:10:00,45.1,39.9,30.02,NNW,338,0.0,0.0,82,0.00,,,0.00,0000,Weather View 32 v70,2013-09-24 04:10:00,
2013-09-24 00:15:00,45.0,39.8,30.02,NNW,338,0.0,0.0,82,0.00,,,0.00,0000,Weather View 32 v70,2013-09-24 04:15:00,
2013-09-24 00:20:00,44.7,39.6,30.03,NNW,338,0.0,0.0,82,0.00,,,0.00,0000,Weather View 32 v70,2013-09-24 04:20:00,
2013-09-24 00:25:00,44.7,39.9,30.02,NNW,338,0.0,0.0,83,0.00,,,0.00,0000,Weather View 32 v70,2013-09-24 04:25:00,
2013-09-24 00:30:00,44.5,39.7,30.02,NNW,338,0.0,0.0,83,0.00,,,0.00,0000,Weather View 32 v70,2013-09-24 04:30:00,
2013-09-24 00:35:00,44.5,39.7,30.02,NNW,338,0.0,0.0,83,0.00,,,0.00,0000,Weather View 32 v70,2013-09-24 04:35:00,
2013-09-24 00:42:00,44.4,39.6,30.02,NNW,338,0.0,0.0,83,0.00,,,0.00,0008,Weather View 32 v70,2013-09-24 04:42:00,
2013-09-24 00:50:00,44.4,39.6,30.02,NNW,338,0.0,0.0,83,0.00,,,0.00,0000,Weather View 32 v70,2013-09-24 04:50:00,
2013-09-24 00:55:00,44.3,39.8,30.02,NNW,338,0.0,0.0,84,0.00,,,0.00,0000,Weather View 32 v70,2013-09-24 04:55:00,
2013-09-24 01:05:00,44.2,39.6,30.02,NNW,338,0.0,0.0,84,0.00,,,0.00,0016,Weather View 32 v70,2013-09-24 05:05:00,
2013-09-24 01:10:00,44.1,39.5,30.02,NNW,338,0.0,0.0,84,0.00,,,0.00,0000,Weather View 32 v70,2013-09-24 05:10:00,
2013-09-24 01:20:00,43.7,38.9,30.02,NNW,338,0.0,0.0,83,0.00,,,0.00,0008,Weather View 32 v70,2013-09-24 05:20:00,
2013-09-24 01:25:00,43.7,38.9,30.02,NNW,338,0.0,0.0,83,0.00,,,0.00,0000,Weather View 32 v70,2013-09-24 05:25:00,
2013-09-24 01:30:00,43.6,38.8,30.02,NNW,338,0.0,0.0,83,0.00,,,0.00,0000,Weather View 32 v70,2013-09-24 05:30:00,
2013-09-24 01:40:00,43.3,38.4,30.02,NNW,338,0.0,0.0,83,0.00,,,0.00,0000,Weather View 32 v70,2013-09-24 05:40:00,
2013-09-24 01:45:00,43.2,38.4,30.02,NNW,338,0.0,0.0,83,0.00,,,0.00,0000,Weather View 32 v70,2013-09-24 05:45:00,
2013-09-24 01:55:00,43.1,38.2,30.02,NNW,338,0.0,0.0,83,0.00,,,0.00,0000,Weather View 32 v70,2013-09-24 05:55:00,
2013-09-24 02:00:00,42.9,38.1,30.02,NNW,338,0.0,0.0,83,0.00,,,0.00,0008,Weather View 32 v70,2013-09-24 06:00:00,
2013-09-24 02:10:00,42.8,38.0,30.02,NNW,338,0.0,0.0,83,0.00,,,0.00,0000,Weather View 32 v70,2013-09-24 06:10:00,
2013-09-24 02:20:00,42.6,37.8,30.02,NNW,338,0.0,0.0,83,0.00,,,0.00,0000,Weather View 32 v70,2013-09-24 06:20:00,
2013-09-24 02:25:00,42.4,37.6,30.01,NNW,338,0.0,0.0,83,0.00,,,0.00,0000,Weather View 32 v70,2013-09-24 06:25:00,
2013-09-24 02:35:00,42.3,37.8,30.01,North,0,0.0,0.0,84,0.00,,,0.00,0000,Weather View 32 v70,2013-09-24 06:35:00,
2013-09-24 02:40:00,42.3,37.8,30.00,NNW,338,0.0,0.0,84,0.00,,,0.00,0000,Weather View 32 v70,2013-09-24 06:40:00,
2013-09-24 02:50:00,42.2,37.7,30.00,NNW,338,0.0,0.0,84,0.00,,,0.00,0000,Weather View 32 v70,2013-09-24 06:50:00,
2013-09-24 02:55:00,41.9,37.4,30.00,NNW,338,0.0,0.0,84,0.00,,,0.00,0000,Weather View 32 v70,2013-09-24 06:55:00,
2013-09-24 03:05:00,41.6,36.8,30.00,NNW,338,0.0,0.0,83,0.00,,,0.00,0000,Weather View 32 v70,2013-09-24 07:05:00,
2013-09-24 03:10:00,41.5,36.7,30.00,NNW,338,0.0,0.0,83,0.00,,,0.00,0000,Weather View 32 v70,2013-09-24 07:10:00,
2013-09-24 03:20:00,40.9,36.2,30.00,NNW,338,0.0,0.0,83,0.00,,,0.00,0000,Weather View 32 v70,2013-09-24 07:20:00,
2013-09-24 03:25:00,40.7,35.9,30.00,NNW,338,0.0,0.0,83,0.00,,,0.00,0000,Weather View 32 v70,2013-09-24 07:25:00,
2013-09-24 03:35:00,40.2,35.5,30.00,NNW,338,0.0,0.0,83,0.00,,,0.00,0000,Weather View 32 v70,2013-09-24 07:35:00,
2013-09-24 03:43:00,40.1,35.4,30.00,NNW,338,0.0,0.0,83,0.00,,,0.00,0008,Weather View 32 v70,2013-09-24 07:43:00,
2013-09-24 03:50:00,39.9,35.2,30.01,NNW,338,0.0,0.0,83,0.00,,,0.00,0000,Weather View 32 v70,2013-09-24 07:50:00,
2013-09-24 03:55:00,39.8,35.0,30.00,NNW,338,0.0,0.0,83,0.00,,,0.00,0000,Weather View 32 v70,2013-09-24 07:55:00,
2013-09-24 04:05:00,39.6,35.1,30.00,NNW,338,0.0,0.0,84,0.00,,,0.00,0000,Weather View 32 v70,2013-09-24 08:05:00,
2013-09-24 04:15:00,39.6,35.1,30.00,NNW,338,0.0,0.0,84,0.00,,,0.00,0000,Weather View 32 v70,2013-09-24 08:15:00,
2013-09-24 04:20:00,39.6,35.1,30.00,NNW,338,0.0,0.0,84,0.00,,,0.00,0000,Weather View 32 v70,2013-09-24 08:20:00,
2013-09-24 04:25:00,39.7,35.5,30.00,NNW,338,0.0,0.0,85,0.00,,,0.00,0008,Weather View 32 v70,2013-09-24 08:25:00,
2013-09-24 04:35:00,39.3,34.9,30.00,NNW,338,0.0,0.0,84,0.00,,,0.00,0008,Weather View 32 v70,2013-09-24 08:35:00,
2013-09-24 04:40:00,39.3,35.2,30.00,North,0,0.0,0.0,85,0.00,,,0.00,0008,Weather View 32 v70,2013-09-24 08:40:00,
2013-09-24 04:50:00,39.1,35.0,30.00,North,0,0.0,0.0,85,0.00,,,0.00,0016,Weather View 32 v70,2013-09-24 08:50:00,
2013-09-24 04:55:00,39.1,34.7,30.00,North,0,0.0,0.0,84,0.00,,,0.00,0000,Weather View 32 v70,2013-09-24 08:55:00,
2013-09-24 05:00:00,38.9,34.8,30.00,North,0,0.0,0.0,85,0.00,,,0.00,0000,Weather View 32 v70,2013-09-24 09:00:00,
2013-09-24 05:10:00,38.8,34.3,30.00,North,0,0.0,0.0,84,0.00,,,0.00,0000,Weather View 32 v70,2013-09-24 09:10:00,
2013-09-24 05:20:00,38.8,34.6,30.00,North,0,0.0,0.0,85,0.00,,,0.00,0016,Weather View 32 v70,2013-09-24 09:20:00,
2013-09-24 05:25:00,38.7,34.5,30.00,North,0,0.0,0.0,85,0.00,,,0.00,0000,Weather View 32 v70,2013-09-24 09:25:00,
2013-09-24 05:30:00,38.6,34.4,30.00,North,0,0.0,0.0,85,0.00,,,0.00,0000,Weather View 32 v70,2013-09-24 09:30:00,
2013-09-24 05:35:00,38.4,34.3,30.01,North,0,0.0,0.0,85,0.00,,,0.00,0000,Weather View 32 v70,2013-09-24 09:35:00,
2013-09-24 05:44:00,38.2,33.8,30.01,North,0,0.0,0.0,84,0.00,,,0.00,0000,Weather View 32 v70,2013-09-24 09:44:00,
2013-09-24 05:50:00,38.1,33.7,30.00,North,0,0.0,0.0,84,0.00,,,0.00,0000,Weather View 32 v70,2013-09-24 09:50:00,
2013-09-24 05:55:00,37.9,33.5,30.00,North,0,0.0,0.0,84,0.00,,,0.00,0000,Weather View 32 v70,2013-09-24 09:55:00,
2013-09-24 06:05:00,37.8,33.4,30.00,North,0,0.0,0.0,84,0.00,,,0.00,0016,Weather View 32 v70,2013-09-24 10:05:00,
2013-09-24 06:10:00,37.7,33.2,30.00,North,0,0.0,0.0,84,0.00,,,0.00,0000,Weather View 32 v70,2013-09-24 10:10:00,
2013-09-24 06:15:00,37.7,33.2,30.00,North,0,0.0,0.0,84,0.00,,,0.00,0000,Weather View 32 v70,2013-09-24 10:15:00,
2013-09-24 06:25:00,37.3,32.9,30.00,North,0,0.0,0.0,84,0.00,,,0.00,0008,Weather View 32 v70,2013-09-24 10:25:00,
2013-09-24 06:30:00,37.3,33.2,30.00,North,0,0.0,0.0,85,0.00,,,0.00,0008,Weather View 32 v70,2013-09-24 10:30:00,
2013-09-24 06:40:00,37.3,33.2,30.00,North,0,0.0,0.0,85,0.00,,,0.00,0000,Weather View 32 v70,2013-09-24 10:40:00,
2013-09-24 06:45:00,37.3,33.2,30.00,North,0,0.0,0.0,85,0.00,,,0.00,0000,Weather View 32 v70,2013-09-24 10:45:00,
2013-09-24 06:55:00,37.5,33.4,30.01,WNW,293,0.0,0.0,85,0.00,,,0.00,0000,Weather View 32 v70,2013-09-24 10:55:00,
2013-09-24 07:00:00,37.4,33.3,30.01,WNW,293,0.0,0.0,85,0.00,,,0.00,0000,Weather View 32 v70,2013-09-24 11:00:00,
2013-09-24 07:10:00,37.4,33.3,30.00,WNW,293,0.0,0.0,85,0.00,,,0.00,0080,Weather View 32 v70,2013-09-24 11:10:00,
2013-09-24 07:15:00,37.8,33.7,30.00,WNW,293,0.0,0.0,85,0.00,,,0.00,0104,Weather View 32 v70,2013-09-24 11:15:00,
2013-09-24 07:25:00,38.0,33.9,30.00,WNW,293,0.0,0.0,85,0.00,,,0.00,0120,Weather View 32 v70,2013-09-24 11:25:00,
2013-09-24 07:30:00,38.2,33.8,30.00,NNE,23,0.0,0.0,84,0.00,,,0.00,0128,Weather View 32 v70,2013-09-24 11:30:00,
2013-09-24 07:35:00,38.3,33.9,30.00,NNE,23,0.0,0.0,84,0.00,,,0.00,0160,Weather View 32 v70,2013-09-24 11:35:00,
2013-09-24 07:40:00,38.6,34.1,29.99,NNE,23,0.0,0.0,84,0.00,,,0.00,0168,Weather View 32 v70,2013-09-24 11:40:00,
2013-09-24 07:45:00,38.9,34.5,29.99,NNE,23,0.0,0.0,84,0.00,,,0.00,0184,Weather View 32 v70,2013-09-24 11:45:00,
2013-09-24 07:55:00,39.7,35.5,29.99,NNW,338,0.0,0.0,85,0.00,,,0.00,0192,Weather View 32 v70,2013-09-24 11:55:00,
2013-09-24 08:05:00,40.6,36.4,29.99,WNW,293,0.0,0.0,85,0.00,,,0.00,0184,Weather View 32 v70,2013-09-24 12:05:00,
2013-09-24 08:15:00,41.7,38.1,29.99,NW,315,0.0,1.0,87,0.00,,,0.00,0280,Weather View 32 v70,2013-09-24 12:15:00,
2013-09-24 08:20:00,42.0,38.4,29.99,NNW,338,0.0,1.0,87,0.00,,,0.00,0288,Weather View 32 v70,2013-09-24 12:20:00,
2013-09-24 08:25:00,42.4,38.8,29.99,NW,315,0.0,1.0,87,0.00,,,0.00,0304,Weather View 32 v70,2013-09-24 12:25:00,
2013-09-24 08:30:00,42.8,39.2,29.99,WNW,293,0.0,1.0,87,0.00,,,0.00,0304,Weather View 32 v70,2013-09-24 12:30:00,
2013-09-24 08:40:00,43.5,39.9,29.99,NNW,338,0.0,1.0,87,0.00,,,0.00,0344,Weather View 32 v70,2013-09-24 12:40:00,
2013-09-24 08:45:00,44.0,40.0,29.99,NW,315,0.0,1.0,86,0.00,,,0.00,0344,Weather View 32 v70,2013-09-24 12:45:00,
2013-09-24 08:55:00,44.9,40.6,29.98,WNW,293,0.0,3.0,85,0.00,,,0.00,0360,Weather View 32 v70,2013-09-24 12:55:00,
2013-09-24 09:05:00,45.5,40.7,29.98,NW,315,0.0,3.0,83,0.00,,,0.00,0408,Weather View 32 v70,2013-09-24 13:05:00,
2013-09-24 09:15:00,46.7,41.1,29.98,North,0,0.0,3.0,81,0.00,,,0.00,0432,Weather View 32 v70,2013-09-24 13:15:00,
2013-09-24 09:25:00,48.1,41.2,29.97,NNW,338,0.0,3.0,77,0.00,,,0.00,0440,Weather View 32 v70,2013-09-24 13:25:00,
2013-09-24 09:30:00,48.5,41.2,29.97,WSW,248,0.0,3.0,76,0.00,,,0.00,0464,Weather View 32 v70,2013-09-24 13:30:00,
2013-09-24 09:35:00,48.7,41.4,29.97,NNW,338,0.0,3.0,76,0.00,,,0.00,0480,Weather View 32 v70,2013-09-24 13:35:00,
2013-09-24 09:40:00,49.2,41.6,29.96,NE,45,0.0,3.0,75,0.00,,,0.00,0504,Weather View 32 v70,2013-09-24 13:40:00,
2013-09-24 09:45:00,49.5,41.5,29.96,NNW,338,0.0,3.0,74,0.00,,,0.00,0488,Weather View 32 v70,2013-09-24 13:45:00,
2013-09-24 09:55:00,50.3,40.8,29.96,WNW,293,0.0,0.0,70,0.00,,,0.00,0544,Weather View 32 v70,2013-09-24 13:55:00,
2013-09-24 10:05:00,50.8,41.0,29.95,WSW,248,0.0,3.0,69,0.00,,,0.00,0552,Weather View 32 v70,2013-09-24 14:05:00,
2013-09-24 10:10:00,51.3,41.8,29.95,NNW,338,0.0,3.0,70,0.00,,,0.00,0568,Weather View 32 v70,2013-09-24 14:10:00,
2013-09-24 10:15:00,51.5,41.3,29.94,NNW,338,0.0,3.0,68,0.00,,,0.00,0576,Weather View 32 v70,2013-09-24 14:15:00,
2013-09-24 10:25:00,51.9,40.5,29.94,NW,315,0.0,5.0,65,0.00,,,0.00,0592,Weather View 32 v70,2013-09-24 14:25:00,
2013-09-24 10:30:00,52.4,42.1,29.94,WNW,293,0.0,5.0,68,0.00,,,0.00,0592,Weather View 32 v70,2013-09-24 14:30:00,
2013-09-24 10:40:00,52.8,41.8,29.94,NNW,338,0.0,5.0,66,0.00,,,0.00,0616,Weather View 32 v70,2013-09-24 14:40:00,
2013-09-24 10:45:00,53.3,41.8,29.94,WSW,248,0.0,5.0,65,0.00,,,0.00,0632,Weather View 32 v70,2013-09-24 14:45:00,
2013-09-24 10:55:00,53.6,41.3,29.93,North,0,0.0,6.0,63,0.00,,,0.00,0664,Weather View 32 v70,2013-09-24 14:55:00,
2013-09-24 11:00:00,53.9,41.1,29.93,North,0,0.0,6.0,62,0.00,,,0.00,0640,Weather View 32 v70,2013-09-24 15:00:00,
2013-09-24 11:05:00,53.6,40.9,29.93,North,0,0.0,6.0,62,0.00,,,0.00,0672,Weather View 32 v70,2013-09-24 15:05:00,
2013-09-24 11:10:00,54.1,41.3,29.93,WSW,248,0.0,6.0,62,0.00,,,0.00,0688,Weather View 32 v70,2013-09-24 15:10:00,
2013-09-24 11:15:00,54.8,41.5,29.93,NW,315,0.0,6.0,61,0.00,,,0.00,0688,Weather View 32 v70,2013-09-24 15:15:00,
2013-09-24 11:25:00,54.5,40.5,29.92,WNW,293,0.0,13.0,59,0.00,,,0.00,0712,Weather View 32 v70,2013-09-24 15:25:00,
2013-09-24 11:30:00,54.8,40.2,29.92,NW,315,0.0,13.0,58,0.00,,,0.00,0696,Weather View 32 v70,2013-09-24 15:30:00,
2013-09-24 11:35:00,55.1,41.4,29.91,NNW,338,0.0,13.0,60,0.00,,,0.00,0688,Weather View 32 v70,2013-09-24 15:35:00,
2013-09-24 11:40:00,55.3,42.1,29.91,North,0,0.0,13.0,61,0.00,,,0.00,0736,Weather View 32 v70,2013-09-24 15:40:00,
2013-09-24 11:45:00,55.8,41.6,29.91,WNW,293,0.0,13.0,59,0.00,,,0.00,0728,Weather View 32 v70,2013-09-24 15:45:00,
2013-09-24 11:50:00,55.9,42.6,29.91,WNW,293,2.0,13.0,61,0.00,,,0.00,0728,Weather View 32 v70,2013-09-24 15:50:00,
2013-09-24 11:55:00,56.1,42.8,29.91,WNW,293,0.0,13.0,61,0.00,,,0.00,0744,Weather View 32 v70,2013-09-24 15:55:00,
2013-09-24 12:00:00,56.1,41.9,29.91,NNW,338,0.0,13.0,59,0.00,,,0.00,0752,Weather View 32 v70,2013-09-24 16:00:00,
2013-09-24 12:10:00,56.8,42.6,29.90,NE,45,0.0,13.0,59,0.00,,,0.00,0736,Weather View 32 v70,2013-09-24 16:10:00,
2013-09-24 12:15:00,57.0,42.3,29.90,WSW,248,5.0,13.0,58,0.00,,,0.00,0752,Weather View 32 v70,2013-09-24 16:15:00,
2013-09-24 12:20:00,57.2,43.4,29.90,NW,315,5.0,13.0,60,0.00,,,0.00,0752,Weather View 32 v70,2013-09-24 16:20:00,
2013-09-24 12:25:00,57.3,42.7,29.90,North,0,0.0,13.0,58,0.00,,,0.00,0752,Weather View 32 v70,2013-09-24 16:25:00,
2013-09-24 12:30:00,58.0,43.3,29.90,WNW,293,0.0,6.0,58,0.00,,,0.00,0744,Weather View 32 v70,2013-09-24 16:30:00,
2013-09-24 12:40:00,59.1,44.3,29.89,North,0,0.0,7.0,58,0.00,,,0.00,0760,Weather View 32 v70,2013-09-24 16:40:00,
2013-09-24 12:48:00,59.7,42.5,29.89,North,0,0.0,7.0,53,0.00,,,0.00,0760,Weather View 32 v70,2013-09-24 16:48:00,
2013-09-24 12:55:00,60.4,43.1,29.89,WNW,293,0.0,7.0,53,0.00,,,0.00,0744,Weather View 32 v70,2013-09-24 16:55:00,
2013-09-24 13:05:00,61.1,43.3,29.89,North,0,0.0,7.0,52,0.00,,,0.00,0728,Weather View 32 v70,2013-09-24 17:05:00,
2013-09-24 13:10:00,61.2,42.9,29.89,WNW,293,0.0,7.0,51,0.00,,,0.00,0704,Weather View 32 v70,2013-09-24 17:10:00,
2013-09-24 13:15:00,61.5,42.6,29.89,NNE,23,0.0,7.0,50,0.00,,,0.00,0744,Weather View 32 v70,2013-09-24 17:15:00,
2013-09-24 13:20:00,61.8,45.9,29.89,WSW,248,0.0,7.0,56,0.00,,,0.00,0736,Weather View 32 v70,2013-09-24 17:20:00,
2013-09-24 13:30:00,61.3,42.4,29.89,NE,45,1.0,7.0,50,0.00,,,0.00,0704,Weather View 32 v70,2013-09-24 17:30:00,
2013-09-24 13:35:00,62.1,43.7,29.89,NNE,23,0.0,6.0,51,0.00,,,0.00,0712,Weather View 32 v70,2013-09-24 17:35:00,
2013-09-24 13:40:00,62.1,42.6,29.89,NE,45,2.0,6.0,49,0.00,,,0.00,0696,Weather View 32 v70,2013-09-24 17:40:00,
2013-09-24 13:45:00,62.0,40.9,29.89,West,270,2.0,6.0,46,0.00,,,0.00,0696,Weather View 32 v70,2013-09-24 17:45:00,
2013-09-24 13:55:00,63.1,42.5,29.88,WNW,293,0.0,6.0,47,0.00,,,0.00,0680,Weather View 32 v70,2013-09-24 17:55:00,
2013-09-24 14:05:00,63.3,43.8,29.87,NNW,338,0.0,6.0,49,0.00,,,0.00,0680,Weather View 32 v70,2013-09-24 18:05:00,
2013-09-24 14:10:00,63.6,41.9,29.86,ENE,68,2.0,6.0,45,0.00,,,0.00,0688,Weather View 32 v70,2013-09-24 18:10:00,
2013-09-24 14:15:00,63.8,42.0,29.87,North,0,0.0,6.0,45,0.00,,,0.00,0656,Weather View 32 v70,2013-09-24 18:15:00,
2013-09-24 14:20:00,64.3,43.6,29.86,NW,315,0.0,6.0,47,0.00,,,0.00,0648,Weather View 32 v70,2013-09-24 18:20:00,
2013-09-24 14:25:00,64.5,44.4,29.86,NNE,23,0.0,7.0,48,0.00,,,0.00,0616,Weather View 32 v70,2013-09-24 18:25:00,
2013-09-24 14:35:00,64.8,42.3,29.85,NNW,338,0.0,7.0,44,0.00,,,0.00,0624,Weather View 32 v70,2013-09-24 18:35:00,
2013-09-24 14:45:00,65.1,44.9,29.85,NNW,338,0.0,7.0,48,0.00,,,0.00,0600,Weather View 32 v70,2013-09-24 18:45:00,
2013-09-24 14:55:00,65.2,42.1,29.85,West,270,0.0,8.0,43,0.00,,,0.00,0568,Weather View 32 v70,2013-09-24 18:55:00,
2013-09-24 15:00:00,65.3,41.6,29.85,NW,315,0.0,8.0,42,0.00,,,0.00,0568,Weather View 32 v70,2013-09-24 19:00:00,
2013-09-24 15:10:00,65.7,42.5,29.85,SSW,203,0.0,8.0,43,0.00,,,0.00,0520,Weather View 32 v70,2013-09-24 19:10:00,
2013-09-24 15:15:00,65.4,41.1,29.85,NNW,338,0.0,8.0,41,0.00,,,0.00,0536,Weather View 32 v70,2013-09-24 19:15:00,
2013-09-24 15:20:00,65.6,41.8,29.85,NW,315,0.0,8.0,42,0.00,,,0.00,0528,Weather View 32 v70,2013-09-24 19:20:00,
2013-09-24 15:25:00,65.6,43.6,29.85,NNE,23,0.0,8.0,45,0.00,,,0.00,0496,Weather View 32 v70,2013-09-24 19:25:00,
2013-09-24 15:35:00,65.6,41.8,29.84,NNW,338,0.0,8.0,42,0.00,,,0.00,0464,Weather View 32 v70,2013-09-24 19:35:00,
2013-09-24 15:40:00,65.7,42.5,29.84,ENE,68,0.0,8.0,43,0.00,,,0.00,0440,Weather View 32 v70,2013-09-24 19:40:00,
2013-09-24 15:45:00,65.8,45.5,29.84,NNE,23,0.0,8.0,48,0.00,,,0.00,0448,Weather View 32 v70,2013-09-24 19:45:00,
2013-09-24 15:50:00,65.9,42.7,29.84,ENE,68,0.0,8.0,43,0.00,,,0.00,0416,Weather View 32 v70,2013-09-24 19:50:00,
2013-09-24 16:00:00,64.4,41.4,29.84,WSW,248,0.0,8.0,43,0.00,,,0.00,0400,Weather View 32 v70,2013-09-24 20:00:00,
2013-09-24 16:05:00,64.0,42.2,29.84,WNW,293,0.0,8.0,45,0.00,,,0.00,0408,Weather View 32 v70,2013-09-24 20:05:00,
2013-09-24 16:15:00,63.6,44.6,29.84,NW,315,0.0,6.0,50,0.00,,,0.00,0344,Weather View 32 v70,2013-09-24 20:15:00,
2013-09-24 16:20:00,63.5,42.9,29.83,North,0,0.0,6.0,47,0.00,,,0.00,0344,Weather View 32 v70,2013-09-24 20:20:00,
2013-09-24 16:25:00,63.3,43.8,29.83,SSW,203,0.0,6.0,49,0.00,,,0.00,0344,Weather View 32 v70,2013-09-24 20:25:00,
2013-09-24 16:35:00,63.1,43.0,29.83,NW,315,0.0,6.0,48,0.00,,,0.00,0312,Weather View 32 v70,2013-09-24 20:35:00,
2013-09-24 16:45:00,62.9,42.3,29.83,NNW,338,0.0,6.0,47,0.00,,,0.00,0248,Weather View 32 v70,2013-09-24 20:45:00,
2013-09-24 16:50:00,62.7,43.3,29.83,NNE,23,0.0,5.0,49,0.00,,,0.00,0248,Weather View 32 v70,2013-09-24 20:50:00,
2013-09-24 17:00:00,62.4,44.0,29.83,North,0,0.0,5.0,51,0.00,,,0.00,0232,Weather View 32 v70,2013-09-24 21:00:00,
2013-09-24 17:05:00,62.4,45.0,29.83,NE,45,0.0,5.0,53,0.00,,,0.00,0176,Weather View 32 v70,2013-09-24 21:05:00,
2013-09-24 17:15:00,62.0,47.0,29.83,NW,315,0.0,5.0,58,0.00,,,0.00,0016,Weather View 32 v70,2013-09-24 21:15:00,
2013-09-24 17:20:00,61.7,47.2,29.84,North,0,0.0,5.0,59,0.00,,,0.00,0016,Weather View 32 v70,2013-09-24 21:20:00,
2013-09-24 17:25:00,61.3,47.2,29.84,North,0,0.0,5.0,60,0.00,,,0.00,0072,Weather View 32 v70,2013-09-24 21:25:00,
2013-09-24 17:30:00,61.1,47.9,29.84,North,0,0.0,5.0,62,0.00,,,0.00,0008,Weather View 32 v70,2013-09-24 21:30:00,
2013-09-24 17:40:00,60.5,47.8,29.84,North,0,0.0,5.0,63,0.00,,,0.00,0016,Weather View 32 v70,2013-09-24 21:40:00,
2013-09-24 17:45:00,60.0,48.2,29.84,North,0,0.0,5.0,65,0.00,,,0.00,0000,Weather View 32 v70,2013-09-24 21:45:00,
2013-09-24 17:51:00,59.6,47.8,29.85,North,0,0.0,1.0,65,0.00,,,0.00,0024,Weather View 32 v70,2013-09-24 21:51:00,
2013-09-24 18:00:00,58.9,47.6,29.85,North,0,0.0,0.0,66,0.00,,,0.00,0008,Weather View 32 v70,2013-09-24 22:00:00,
2013-09-24 18:10:00,58.5,46.7,29.85,North,0,0.0,0.0,65,0.00,,,0.00,0016,Weather View 32 v70,2013-09-24 22:10:00,
2013-09-24 18:15:00,58.2,47.3,29.85,North,0,0.0,0.0,67,0.00,,,0.00,0016,Weather View 32 v70,2013-09-24 22:15:00,
2013-09-24 18:25:00,57.7,47.2,29.85,North,0,0.0,0.0,68,0.00,,,0.00,0016,Weather View 32 v70,2013-09-24 22:25:00,
2013-09-24 18:35:00,56.9,46.8,29.85,North,0,0.0,0.0,69,0.00,,,0.00,0016,Weather View 32 v70,2013-09-24 22:35:00,
2013-09-24 18:40:00,56.7,46.6,29.85,North,0,0.0,0.0,69,0.00,,,0.00,0000,Weather View 32 v70,2013-09-24 22:40:00,
2013-09-24 18:45:00,56.3,46.6,29.85,North,0,0.0,0.0,70,0.00,,,0.00,0016,Weather View 32 v70,2013-09-24 22:45:00,
2013-09-24 18:50:00,55.9,46.6,29.85,North,0,0.0,0.0,71,0.00,,,0.00,0000,Weather View 32 v70,2013-09-24 22:50:00,
2013-09-24 18:55:00,55.8,46.9,29.86,North,0,0.0,0.0,72,0.00,,,0.00,0000,Weather View 32 v70,2013-09-24 22:55:00,
2013-09-24 19:00:00,55.4,46.9,29.86,North,0,0.0,0.0,73,0.00,,,0.00,0000,Weather View 32 v70,2013-09-24 23:00:00,
2013-09-24 19:05:00,55.3,46.8,29.86,North,0,0.0,0.0,73,0.00,,,0.00,0000,Weather View 32 v70,2013-09-24 23:05:00,
2013-09-24 19:15:00,54.9,46.7,29.87,North,0,0.0,0.0,74,0.00,,,0.00,0000,Weather View 32 v70,2013-09-24 23:15:00,
2013-09-24 19:20:00,54.6,46.5,29.87,North,0,0.0,0.0,74,0.00,,,0.00,0000,Weather View 32 v70,2013-09-24 23:20:00,
2013-09-24 19:25:00,54.5,46.7,29.87,North,0,0.0,0.0,75,0.00,,,0.00,0000,Weather View 32 v70,2013-09-24 23:25:00,
2013-09-24 19:30:00,54.4,46.6,29.87,North,0,0.0,0.0,75,0.00,,,0.00,0000,Weather View 32 v70,2013-09-24 23:30:00,
2013-09-24 19:40:00,54.3,46.9,29.88,North,0,0.0,0.0,76,0.00,,,0.00,0000,Weather View 32 v70,2013-09-24 23:40:00,
2013-09-24 19:45:00,54.2,46.8,29.88,North,0,0.0,0.0,76,0.00,,,0.00,0000,Weather View 32 v70,2013-09-24 23:45:00,
2013-09-24 19:50:00,54.1,47.0,29.88,North,0,0.0,0.0,77,0.00,,,0.00,0000,Weather View 32 v70,2013-09-24 23:50:00,
2013-09-24 19:55:00,53.9,46.8,29.88,North,0,0.0,0.0,77,0.00,,,0.00,0000,Weather View 32 v70,2013-09-24 23:55:00,
2013-09-24 20:00:00,53.7,46.7,29.88,NE,45,0.0,0.0,77,0.00,,,0.00,0000,Weather View 32 v70,2013-09-25 00:00:00,
2013-09-24 20:05:00,53.5,46.8,29.88,NNE,23,0.0,0.0,78,0.00,,,0.00,0000,Weather View 32 v70,2013-09-25 00:05:00,
2013-09-24 20:15:00,53.1,46.4,29.88,NNE,23,0.0,0.0,78,0.00,,,0.00,0008,Weather View 32 v70,2013-09-25 00:15:00,
2013-09-24 20:20:00,52.8,46.2,29.88,NNE,23,0.0,0.0,78,0.00,,,0.00,0000,Weather View 32 v70,2013-09-25 00:20:00,
2013-09-24 20:30:00,52.4,46.1,29.89,NNE,23,0.0,0.0,79,0.00,,,0.00,0000,Weather View 32 v70,2013-09-25 00:30:00,
2013-09-24 20:35:00,52.2,45.8,29.89,NNE,23,0.0,0.0,79,0.00,,,0.00,0000,Weather View 32 v70,2013-09-25 00:35:00,
2013-09-24 20:40:00,52.1,45.7,29.89,NNE,23,0.0,0.0,79,0.00,,,0.00,0000,Weather View 32 v70,2013-09-25 00:40:00,
2013-09-24 20:50:00,51.3,45.3,29.89,NNE,23,0.0,0.0,80,0.00,,,0.00,0000,Weather View 32 v70,2013-09-25 00:50:00,
2013-09-24 21:00:00,50.8,44.9,29.89,NNW,338,0.0,0.0,80,0.00,,,0.00,0000,Weather View 32 v70,2013-09-25 01:00:00,
2013-09-24 21:10:00,50.6,44.6,29.89,NNW,338,0.0,0.0,80,0.00,,,0.00,0000,Weather View 32 v70,2013-09-25 01:10:00,
2013-09-24 21:15:00,50.5,44.5,29.89,NNW,338,0.0,0.0,80,0.00,,,0.00,0000,Weather View 32 v70,2013-09-25 01:15:00,
2013-09-24 21:20:00,50.4,44.4,29.90,NNW,338,0.0,0.0,80,0.00,,,0.00,0000,Weather View 32 v70,2013-09-25 01:20:00,
2013-09-24 21:25:00,50.3,44.6,29.90,NNW,338,0.0,0.0,81,0.00,,,0.00,0000,Weather View 32 v70,2013-09-25 01:25:00,
2013-09-24 21:30:00,50.0,44.1,29.91,NNW,338,0.0,0.0,80,0.00,,,0.00,0008,Weather View 32 v70,2013-09-25 01:30:00,
2013-09-24 21:40:00,49.9,44.3,29.90,NNW,338,0.0,0.0,81,0.00,,,0.00,0000,Weather View 32 v70,2013-09-25 01:40:00,
2013-09-24 21:50:00,49.8,44.2,29.91,NW,315,0.0,0.0,81,0.00,,,0.00,0000,Weather View 32 v70,2013-09-25 01:50:00,
2013-09-24 21:55:00,49.9,44.3,29.91,NW,315,0.0,0.0,81,0.00,,,0.00,0000,Weather View 32 v70,2013-09-25 01:55:00,
2013-09-24 22:00:00,49.8,43.9,29.91,NW,315,0.0,0.0,80,0.00,,,0.00,0000,Weather View 32 v70,2013-09-25 02:00:00,
2013-09-24 22:05:00,49.7,43.8,29.91,NW,315,0.0,0.0,80,0.00,,,0.00,0000,Weather View 32 v70,2013-09-25 02:05:00,
2013-09-24 22:15:00,49.5,43.2,29.91,NW,315,0.0,0.0,79,0.00,,,0.00,0000,Weather View 32 v70,2013-09-25 02:15:00,
2013-09-24 22:20:00,49.4,43.1,29.91,NW,315,0.0,0.0,79,0.00,,,0.00,0008,Weather View 32 v70,2013-09-25 02:20:00,
2013-09-24 22:25:00,49.2,43.0,29.92,NW,315,0.0,0.0,79,0.00,,,0.00,0000,Weather View 32 v70,2013-09-25 02:25:00,
2013-09-24 22:30:00,49.1,42.9,29.92,NW,315,0.0,0.0,79,0.00,,,0.00,0008,Weather View 32 v70,2013-09-25 02:30:00,
2013-09-24 22:40:00,48.9,42.3,29.92,NW,315,0.0,0.0,78,0.00,,,0.00,0000,Weather View 32 v70,2013-09-25 02:40:00,
2013-09-24 22:50:00,48.7,42.1,29.92,NW,315,0.0,0.0,78,0.00,,,0.00,0000,Weather View 32 v70,2013-09-25 02:50:00,
2013-09-24 22:55:00,48.6,42.3,29.92,NW,315,0.0,0.0,79,0.00,,,0.00,0000,Weather View 32 v70,2013-09-25 02:55:00,
2013-09-24 23:05:00,48.5,42.2,29.92,NW,315,0.0,0.0,79,0.00,,,0.00,0000,Weather View 32 v70,2013-09-25 03:05:00,
2013-09-24 23:10:00,48.5,42.2,29.93,NW,315,0.0,0.0,79,0.00,,,0.00,0008,Weather View 32 v70,2013-09-25 03:10:00,
2013-09-24 23:20:00,48.3,42.1,29.93,NW,315,0.0,0.0,79,0.00,,,0.00,0000,Weather View 32 v70,2013-09-25 03:20:00,
2013-09-24 23:25:00,48.2,42.0,29.93,NW,315,0.0,0.0,79,0.00,,,0.00,0000,Weather View 32 v70,2013-09-25 03:25:00,
2013-09-24 23:30:00,48.0,41.8,29.93,NW,315,0.0,0.0,79,0.00,,,0.00,0008,Weather View 32 v70,2013-09-25 03:30:00,
2013-09-24 23:40:00,48.0,41.8,29.93,NW,315,0.0,0.0,79,0.00,,,0.00,0000,Weather View 32 v70,2013-09-25 03:40:00,
2013-09-24 23:50:00,47.9,42.0,29.93,NW,315,0.0,0.0,80,0.00,,,0.00,0000,Weather View 32 v70,2013-09-25 03:50:00,